[[{"header":{"parameterUnit":"m.s-1","parameterCategory":1,"la1":30.2991,"la2":30.254,"lo1":-89.0895,"lo2":-89.0444,"dy":0.0017,"dx":0.0017,"nx":28,"ny":28,"refTime":"2023-10-24T09:00:00:Z","depth":0,"parameterNumber":2,"parameterNumberName":"U-component_of_WINDS"},"data":[0,0,0,0,0,0,0,0,0,0,0,0,0,0,0,0,0,0,0,0,0,0,0,0,0,0,0,0,0,0,0,0,0,0,0,0,0,0,0,0,0,0,0,0,0,0,0,0,0,0,0,0,0,0,0,0,0,0,-6.6603,-6.6604,0,-6.6694,-6.6695,-6.6696,-6.6633,-6.6631,-6.6628,-6.6625,-6.6711,-6.6716,-6.6721,0,0,0,0,0,0,0,0,0,0,0,0,0,-6.6372,-6.6376,-6.6603,-6.6604,-6.6606,-6.6694,-6.6695,-6.6696,-6.6634,-6.6631,-6.6627,-6.6624,-6.6709,-6.6715,-6.6721,0,0,0,0,0,0,0,0,0,0,0,0,0,-6.6468,-6.6378,-6.6603,-6.6585,-6.6585,-6.6694,-6.6695,-6.6697,-6.6635,-6.663,-6.6626,-6.6622,-6.6707,-6.6715,-6.6722,-6.6851,0,0,-6.6744,-6.6747,0,0,0,0,0,0,0,0,-6.6463,-6.6477,-6.6587,-6.6587,-6.6586,-6.6648,-6.6645,-6.6748,-6.6636,-6.6615,-6.6625,-6.662,-6.6693,-6.6701,-6.6727,-6.6855,-6.6859,-6.6745,-6.6749,-6.6752,-6.6755,0,0,0,0,0,0,0,-6.6456,-6.6472,-6.6639,-6.6588,-6.6588,-6.6571,-6.658,-6.6664,-6.6676,-6.6617,-6.6613,-6.6625,-6.6692,-6.672,-6.6729,-6.686,-6.6745,-6.6751,-6.6756,-6.6759,-6.7098,-6.7103,0,0,0,0,0,0,-6.6452,-6.6467,-6.6636,-6.6642,-6.6513,-6.6579,-6.6589,-6.6632,-6.6675,-6.6678,-6.6628,-6.6621,-6.671,-6.672,-6.6732,-6.6884,-6.6752,-6.6759,-6.6763,-6.7094,-6.71,-6.7105,0,0,0,0,0,0,-6.6447,-6.6467,-6.6632,-6.6553,-6.6573,-6.6587,-6.6637,-6.6636,-6.6665,-6.6684,-6.6685,-6.6655,-6.6707,-6.6721,-6.6822,-6.6886,-6.6763,-6.6769,-6.7088,-6.7096,-6.7102,-6.7192,0,0,0,0,0,0,-6.6441,-6.6466,-6.6516,-6.6555,-6.6578,-6.6723,-6.6641,-6.6641,-6.6678,-6.667,-6.6709,-6.6712,-6.6705,-6.6812,-6.683,-6.6894,-6.6775,-6.7083,-6.7092,-6.71,-6.7183,-6.7201,-6.7216,0,0,0,0,0,-6.6433,-6.6536,-6.6519,-6.654,-6.6641,-6.6727,-6.6739,-6.6731,-6.6684,-6.6733,-6.6746,-6.6711,-6.6878,-6.6823,-6.6842,-6.691,-6.7078,-6.7089,-6.7099,-6.7175,-6.7197,-6.7216,0,0,0,0,0,0,-6.65,-6.6541,-6.6522,-6.6642,-6.6682,-6.6716,-6.6778,-6.6755,-6.6807,-6.6797,-6.6783,-6.6792,-6.6898,-6.6915,-6.6852,-6.7038,-6.697,-6.6985,-6.7022,-6.7043,-6.7059,-6.705,-6.6781,0,0,0,0,0,-6.653,-6.6599,-6.663,-6.6732,-6.6754,-6.6763,-6.68,-6.6791,-6.6831,-6.6846,-6.6866,-6.6905,-6.6966,-6.7006,-6.7063,-6.7188,-6.7194,-6.7244,-6.7261,-6.7274,-6.7285,-6.7351,-6.7374,-6.7139,-6.7139,-6.7138,0,0,-6.659,-6.6621,-6.6664,-6.6747,-6.6776,-6.6846,-6.6777,-6.6853,-6.6904,-6.6857,-6.6953,-6.6971,-6.7012,-6.7126,-6.7176,-6.7143,-6.7353,-6.7288,-6.7298,-6.7302,-6.7364,-6.7387,-6.7406,-6.7146,-6.7145,-6.7143,0,0,-6.6735,-6.6766,-6.6855,-6.6888,-6.6935,-6.6941,-6.6963,-6.7003,-6.7013,-6.7111,-6.7077,-6.7137,-6.7243,-6.7274,-6.7304,-6.7466,-6.7434,-6.7485,-6.757,-6.7634,-6.7653,-6.7669,-6.7724,-6.7744,-6.7498,-6.7498,-6.7498,0,-6.6802,-6.6907,-6.6902,-6.6982,-6.7018,-6.6984,-6.7073,-6.7104,-6.7167,-6.7192,-6.7156,-6.7289,-6.7315,-6.7434,-6.7475,-6.7501,-6.7523,-6.7478,-6.7651,-6.7667,-6.7682,-6.7735,-6.7756,-6.7504,-6.7503,-6.7502,-6.7502,0,-6.6987,-6.7061,-6.7127,-6.7192,-6.7236,-6.732,-6.7326,-6.7372,-6.7361,-6.7371,-6.7471,-6.7502,-6.7565,-6.7594,-6.7583,-6.7713,-6.769,-6.7653,-6.7584,-6.771,-6.7759,-6.7779,-6.7512,-6.751,-6.7508,-6.7507,0,0,-6.717,-6.7236,-6.7259,-6.7289,-6.7341,-6.7397,-6.748,-6.7545,-6.7583,-6.763,-6.7697,-6.779,-6.7757,-6.7791,-6.7783,-6.7841,-6.7965,-6.7796,-6.7797,-6.7823,-6.8107,-6.8132,-6.8155,-6.7947,-6.7951,-6.7954,-6.8103,0,-6.7315,-6.7461,-6.7461,-6.7594,-6.7662,-6.7633,-6.7705,-6.7744,-6.7757,-6.7815,-6.7829,-6.7894,-6.7846,-6.7867,-6.7923,-6.7938,-6.802,-6.7928,-6.8006,-6.8009,-6.7991,-6.8181,-6.8207,-6.8346,-6.8122,-6.8125,-6.8128,0,-6.7502,-6.7557,-6.7699,-6.7743,-6.7771,-6.7836,-6.7896,-6.7953,-6.7997,-6.8003,-6.8044,-6.8028,-6.8111,-6.8045,-6.8158,-6.8094,-6.8128,-6.814,-6.8145,-6.8148,-6.8072,-6.8185,-6.839,-6.841,-6.8158,-6.8156,-6.8154,0,-6.7618,-6.7728,-6.7827,-6.7853,-6.7908,-6.7954,-6.7979,-6.802,-6.8059,-6.8112,-6.8137,-6.8199,-6.8231,-6.8278,-6.828,-6.8232,-6.8393,-6.8327,-6.8397,-6.8397,-6.8428,-6.8425,-6.8637,-6.8457,-6.8457,-6.8457,-6.8456,0,-6.7776,-6.7863,-6.788,-6.794,-6.8036,-6.8037,-6.8131,-6.8152,-6.8189,-6.8251,-6.8231,-6.829,-6.829,-6.835,-6.8352,-6.8445,-6.846,-6.8465,-6.8463,-6.8464,-6.8463,-6.8482,-6.847,-6.8462,-6.8461,-6.846,-6.8459,0,-6.7919,-6.7934,-6.804,-6.8085,-6.8099,-6.8168,-6.8205,-6.8262,-6.8276,-6.8355,-6.8374,-6.8394,-6.8464,-6.8472,-6.8552,-6.8554,-6.8664,-6.8654,-6.8649,-6.8646,-6.8715,-6.8707,-6.8942,-6.8972,-6.8777,-6.8779,-6.878,0,-6.8017,-6.8083,-6.8138,-6.8179,-6.8208,-6.8275,-6.8316,-6.8321,-6.8364,-6.8422,-6.8471,-6.854,-6.8594,-6.8707,-6.8728,-6.879,-6.8779,-6.8857,-6.8787,-6.8786,-6.8776,-6.877,-6.8776,-6.8869,-6.8871,-6.8873,-6.8874,0,-6.8188,-6.8194,-6.8255,-6.8321,-6.8372,-6.8422,-6.847,-6.8505,-6.8515,-6.8565,-6.8638,-6.8681,-6.8765,-6.8833,-6.8895,-6.8918,-6.8897,-6.8897,-6.8916,-6.8915,-6.8908,-6.8909,-6.8681,-6.889,-6.8888,-6.8887,-6.8886,-6.8886,-6.8309,-6.8367,-6.8415,-6.8484,-6.8522,-6.8568,-6.8624,-6.8646,-6.8708,-6.8778,-6.8777,-6.8857,-6.8901,-6.8982,-6.9011,-6.9072,-6.9046,-6.9074,-6.908,-6.9086,-6.9092,-6.8903,-6.9084,-6.9084,-6.9083,-6.9083,-6.9083,0,-6.8476,-6.8507,-6.8572,-6.8641,-6.8696,-6.8677,-6.873,-6.8776,-6.8847,-6.8892,-6.8947,-6.9031,-6.9098,-6.9126,-6.9191,-6.9234,-6.9226,-6.9251,-6.9245,-6.925,-6.9113,-6.9088,-6.9256,-6.9256,-6.9256,-6.9256,-6.9256,-6.9256,-6.8569,-6.8666,-6.8678,-6.8793,-6.8822,-6.8902,-6.8934,-6.8976,-6.9012,-6.9107,-6.9163,-6.9183,-6.922,-6.9289,-6.9349,-6.9355,-6.9378,-6.9406,-6.9408,-6.9278,-6.926,-6.9243,-6.922,-6.9412,-6.9413,-6.954,-6.9541,-6.9542]},{"header":{"parameterUnit":"m.s-1","parameterCategory":1,"la1":30.2991,"la2":30.254,"lo1":-89.0895,"lo2":-89.0444,"dy":0.0017,"dx":0.0017,"nx":28,"ny":28,"refTime":"2023-10-24T09:00:00:Z","depth":0,"parameterNumber":3,"parameterNumberName":"V-component_of_WINDS"},"data":[0,0,0,0,0,0,0,0,0,0,0,0,0,0,0,0,0,0,0,0,0,0,0,0,0,0,0,0,0,0,0,0,0,0,0,0,0,0,0,0,0,0,0,0,0,0,0,0,0,0,0,0,0,0,0,0,0,0,3.6353,3.6353,0,3.6392,3.6393,3.6393,3.6352,3.635,3.6349,3.6347,3.6383,3.6385,3.6388,0,0,0,0,0,0,0,0,0,0,0,0,0,3.6238,3.624,3.6352,3.6353,3.6354,3.6392,3.6393,3.6393,3.6352,3.635,3.6348,3.6346,3.6382,3.6385,3.6388,0,0,0,0,0,0,0,0,0,0,0,0,0,3.6283,3.6241,3.6352,3.6338,3.6337,3.6392,3.6393,3.6394,3.6353,3.635,3.6348,3.6345,3.6381,3.6385,3.6388,3.6459,0,0,3.64,3.6401,0,0,0,0,0,0,0,0,3.6281,3.6288,3.6339,3.6339,3.6338,3.6365,3.6366,3.6415,3.6353,3.6346,3.6347,3.6344,3.6379,3.6382,3.6395,3.646,3.6462,3.64,3.6402,3.6404,3.6405,0,0,0,0,0,0,0,3.6278,3.6286,3.6368,3.634,3.6339,3.6328,3.6332,3.6375,3.6375,3.6347,3.6344,3.6349,3.6378,3.6391,3.6395,3.6463,3.64,3.6403,3.6405,3.6407,3.659,3.6592,0,0,0,0,0,0,3.6277,3.6283,3.6367,3.6369,3.6303,3.6332,3.6337,3.6358,3.6375,3.6375,3.6351,3.6347,3.6386,3.6391,3.6396,3.6481,3.6404,3.6407,3.6409,3.6587,3.6591,3.6593,0,0,0,0,0,0,3.6275,3.6285,3.6365,3.6326,3.6335,3.6337,3.6362,3.6361,3.6374,3.6378,3.6378,3.6366,3.6385,3.6391,3.6444,3.6481,3.6409,3.6412,3.6584,3.6588,3.6592,3.6649,0,0,0,0,0,0,3.6271,3.6284,3.6311,3.6327,3.6337,3.6413,3.6364,3.6363,3.6381,3.6376,3.6391,3.6392,3.6383,3.6439,3.6448,3.6485,3.6415,3.6581,3.6586,3.6591,3.6644,3.6655,3.6664,0,0,0,0,0,3.6267,3.6324,3.6313,3.6323,3.6372,3.6415,3.6421,3.6412,3.6384,3.6411,3.6415,3.6391,3.6477,3.6445,3.6455,3.6493,3.6578,3.6584,3.659,3.6639,3.6653,3.6664,0,0,0,0,0,0,3.631,3.6326,3.6313,3.6377,3.6396,3.6408,3.6442,3.6426,3.6451,3.6445,3.6432,3.6436,3.6492,3.6498,3.6463,3.6563,3.6523,3.6531,3.6557,3.6569,3.6579,3.6575,3.6418,0,0,0,0,0,3.6327,3.6363,3.6374,3.6429,3.644,3.644,3.6458,3.645,3.6468,3.6475,3.6482,3.6499,3.653,3.655,3.6579,3.6646,3.6648,3.6677,3.6687,3.6695,3.6702,3.6739,3.6752,3.6613,3.6613,3.6613,0,0,3.6362,3.6375,3.6398,3.6438,3.6452,3.6488,3.6446,3.6486,3.6513,3.648,3.6531,3.6538,3.6556,3.6617,3.6644,3.6624,3.6741,3.6703,3.6709,3.6711,3.6746,3.6759,3.6771,3.6617,3.6616,3.6616,0,0,3.6444,3.6458,3.6506,3.6522,3.6544,3.6544,3.6556,3.6573,3.6576,3.6628,3.6605,3.6636,3.669,3.6704,3.6718,3.6811,3.679,3.6821,3.6872,3.6908,3.6919,3.6928,3.6961,3.6973,3.6828,3.6828,3.6828,0,3.6483,3.6539,3.6532,3.6575,3.6593,3.657,3.6618,3.6633,3.6662,3.6675,3.6653,3.6721,3.6732,3.6796,3.682,3.6832,3.6845,3.6818,3.6918,3.6928,3.6936,3.6967,3.698,3.6831,3.6831,3.6831,3.683,0,3.6587,3.6626,3.6662,3.6695,3.6718,3.6763,3.6762,3.6786,3.6778,3.678,3.6834,3.6847,3.6878,3.6893,3.6883,3.6957,3.6944,3.692,3.6879,3.6953,3.6982,3.6994,3.6836,3.6835,3.6834,3.6833,0,0,3.6692,3.6724,3.6737,3.6753,3.6778,3.6807,3.6852,3.6886,3.6906,3.6929,3.6966,3.7013,3.6993,3.7009,3.7002,3.7034,3.7107,3.7006,3.7006,3.7024,3.7189,3.7205,3.7219,3.7095,3.7097,3.7099,3.7187,0,3.6775,3.6855,3.6852,3.6926,3.6962,3.6942,3.6982,3.7001,3.7006,3.7036,3.7041,3.7075,3.7045,3.7055,3.7086,3.7091,3.7139,3.7085,3.7127,3.7129,3.7122,3.7234,3.7252,3.7334,3.7198,3.72,3.7202,0,3.6881,3.691,3.6989,3.7011,3.7026,3.7062,3.7093,3.7124,3.7146,3.7147,3.7168,3.7156,3.7201,3.7161,3.7223,3.7186,3.7204,3.7209,3.7212,3.7214,3.7168,3.7239,3.736,3.7373,3.7219,3.7218,3.7217,0,3.695,3.7009,3.7064,3.7078,3.7105,3.7131,3.7143,3.7163,3.7185,3.7212,3.7226,3.7257,3.7274,3.7299,3.7296,3.7267,3.7359,3.7318,3.736,3.736,3.7378,3.7377,3.7504,3.7392,3.7392,3.7392,3.7392,0,3.7041,3.709,3.7096,3.713,3.7184,3.7181,3.7234,3.7244,3.7263,3.7297,3.7282,3.7314,3.7309,3.7342,3.734,3.7391,3.7399,3.7401,3.7399,3.7402,3.7401,3.7411,3.7405,3.7395,3.7394,3.7394,3.7393,0,3.7126,3.7132,3.7191,3.7214,3.7221,3.726,3.7279,3.7311,3.7316,3.7361,3.7371,3.7378,3.7416,3.7416,3.7459,3.7458,3.7521,3.7513,3.7514,3.7512,3.7554,3.755,3.769,3.7709,3.7586,3.7588,3.7589,0,3.7183,3.7221,3.725,3.7273,3.7288,3.7326,3.7348,3.7347,3.7371,3.7401,3.7429,3.7467,3.7496,3.7558,3.7566,3.7599,3.7591,3.7639,3.7596,3.7597,3.7591,3.7589,3.7592,3.7646,3.7647,3.7649,3.7649,0,3.7284,3.7287,3.7321,3.7358,3.7386,3.7414,3.744,3.746,3.7462,3.749,3.753,3.7553,3.7599,3.7636,3.7668,3.7679,3.7665,3.7664,3.7675,3.7676,3.7675,3.7676,3.7536,3.7659,3.7658,3.7658,3.7657,3.7657,3.7357,3.739,3.7417,3.7456,3.7476,3.7502,3.7534,3.7545,3.7579,3.7618,3.7615,3.766,3.7682,3.7725,3.774,3.7774,3.7757,3.7774,3.7778,3.7782,3.7786,3.7672,3.778,3.778,3.7779,3.7779,3.7779,0,3.7457,3.7474,3.7511,3.7549,3.7581,3.7568,3.7597,3.7623,3.7664,3.7688,3.7718,3.7765,3.7802,3.7815,3.785,3.7875,3.787,3.7885,3.7882,3.7885,3.7799,3.7785,3.7889,3.7889,3.7889,3.7889,3.7889,3.7889,3.7512,3.7569,3.7575,3.7641,3.7657,3.7703,3.7721,3.7745,3.7764,3.7818,3.785,3.7859,3.7879,3.7916,3.7949,3.7952,3.7965,3.7983,3.7983,3.7902,3.7891,3.788,3.7867,3.7986,3.7986,3.8066,3.8066,3.8067]}]]